Regional Weather Roundup
Issued by NWS Kansas City/Pleasant Hill, MO

Home | Current Version | Previous Version | Text Only | Print | Product List | Glossary On
Versions: 1 2 3 4 5 6 7 8 9 10 11 12 13 14 15 16 17 18 19 20 21 22 23 24 25 26 27 28 29 30 31 32 33 34 35 36 37 38 39 40 41 42 43 44 45 46 47 48 49 50
297
ASUS43 KEAX 262310
RWREAX

WEATHER ROUNDUP FOR EASTERN KANSAS AND NORTHWEST MISSOURI
NATIONAL WEATHER SERVICE KANSAS CITY/PLEASANT HILL MO
500 PM CST SUN FEB 26 2017

KSZ040-057-103>105-MOZ028-029-037-043-270000-
...KANSAS CITY METROPOLITAN AREA...

CITY           SKY/WX    TMP DP  RH WIND       PRES   REMARKS
K.C. INTL      MOSUNNY   50  24  36 S7        29.94S
K.C. DOWNTOWN  SUNNY     50  26  39 S8        29.95R
LEES SUMMIT    SUNNY     48  31  51 S8        29.96S
OLATHE - IXD   SUNNY     48  33  56 SE12      29.95R
OLATHE - OJC   PTSUNNY   48  34  58 SE10      29.95R
LAWRENCE       MOSUNNY   52  29  41 SE9       29.93S

$$

MOZ001>008-011>017-020>025-030>033-038>040-044>046-053-054-270000-
...NORTHERN AND CENTRAL MISSOURI...

CITY           SKY/WX    TMP DP  RH WIND       PRES   REMARKS
ST. JOSEPH     MOSUNNY   51  25  36 S10       29.93S
MOSBY          MOCLDY    50  23  34 S7        29.96S
WARRENSBURG    MOSUNNY   43  34  70 SE10      29.99S
WHITEMAN AFB   PTSUNNY   43  38  83 S10       29.99R
CLINTON        CLOUDY    41  36  81 SE8       30.01R
SEDALIA        MOSUNNY   44  35  70 S13       30.01S
WARSAW         NOT AVBL
CHILLICOTHE      N/A     50  24  36 S10       29.97R
KIRKSVILLE     CLOUDY    48  22  35 SW9       29.97R

$$

MOZ041-047>049-056>058-063>065-088>090-097-270000-
...EASTERN AND SOUTHERN MISSOURI...

CITY           SKY/WX    TMP DP  RH WIND       PRES   REMARKS
ST. LOUIS INTL CLOUDY    47  25  42 SW16G23   30.08S
SPIRIT OF STL  CLOUDY    45  30  55 S6        30.07S
COLUMBIA       CLOUDY    43  34  70 S12       30.02S
JEFFERSON CITY CLOUDY    43  35  73 S8        30.04F
ROLLA          LGT RAIN  38  34  85 SE10G17   30.02F WCI  31
OSAGE BEACH    LGT RAIN  39  36  87 SE6       30.04S WCI  35
SPRINGFIELD    CLOUDY    42  33  70 SE13      29.97S
BRANSON        CLOUDY    46  25  42 E10       29.98R
JOPLIN         CLOUDY    43  33  68 E9        29.96S
WEST PLAINS    CLOUDY    48  23  37 SE6       30.02F

$$

IAZ060-094-KSZ022-034>040-054-083-096-NEZ052-066-093-270000-
...KANSAS...SOUTHEAST NEBRASKA AND IOWA...

CITY           SKY/WX    TMP DP  RH WIND       PRES   REMARKS
TOPEKA         SUNNY     53  25  33 W3        29.92S
MANHATTAN      SUNNY     53  23  31 S3        29.91S
EMPORIA        SUNNY     52  24  33 E6        29.91R
CHANUTE        SUNNY     51  28  41 S10       29.94S
WICHITA        SUNNY     53  24  32 CALM      29.90R
OMAHA          MOSUNNY   44  22  41 N5        29.95R
LINCOLN        SUNNY     45  24  43 N6        29.95R
FALLS CITY     MOSUNNY   52  21  29 MISG      29.91R
LAMONI         CLOUDY    47  25  42 W5        29.92R
DES MOINES     MOSUNNY   44  19  36 NW8       29.95R

$$





USA.gov is the U.S. government's official web portal to all federal, state and local government web resources and services.